owner,sensor,date,latitude,longitude,vertical_datum,sea_water_temperature,qcFlag 
DISL,ioos:station:DISL:MBLA:1,2016-04-06T00:03:00Z,30.4367,-88.0117,0.5,19.29,2 
DISL,ioos:station:DISL:MBLA:1,2016-04-06T00:05:00Z,30.4367,-88.0117,0.5,19.55,2 
DISL,ioos:station:DISL:MBLA:1,2016-04-06T00:07:00Z,30.4367,-88.0117,0.5,19.5,2 
DISL,ioos:station:DISL:MBLA:1,2016-04-06T00:10:00Z,30.4367,-88.0117,0.5,19.54,2 
DISL,ioos:station:DISL:MBLA:1,2016-04-06T00:12:00Z,30.4367,-88.0117,0.5,19.69,2 
DISL,ioos:station:DISL:MBLA:1,2016-04-06T00:15:00Z,30.4367,-88.0117,0.5,19.93,2 
DISL,ioos:station:DISL:MBLA:1,2016-04-06T00:17:00Z,30.4367,-88.0117,0.5,19.98,2 
DISL,ioos:station:DISL:MBLA:1,2016-04-06T01:03:00Z,30.4367,-88.0117,0.5,19.27,2 
DISL,ioos:station:DISL:MBLA:1,2016-04-06T01:05:00Z,30.4367,-88.0117,0.5,19.28,2 
DISL,ioos:station:DISL:MBLA:1,2016-04-06T01:07:00Z,30.4367,-88.0117,0.5,19.39,2 
DISL,ioos:station:DISL:MBLA:1,2016-04-06T01:10:00Z,30.4367,-88.0117,0.5,19.46,2 
DISL,ioos:station:DISL:MBLA:1,2016-04-06T01:12:00Z,30.4367,-88.0117,0.5,19.56,2 
DISL,ioos:station:DISL:MBLA:1,2016-04-06T01:14:00Z,30.4367,-88.0117,0.5,19.78,2 
DISL,ioos:station:DISL:MBLA:1,2016-04-06T01:17:00Z,30.4367,-88.0117,0.5,19.88,2 
DISL,ioos:station:DISL:MBLA:1,2016-04-06T02:03:00Z,30.4367,-88.0117,0.5,19.39,2 
DISL,ioos:station:DISL:MBLA:1,2016-04-06T02:05:00Z,30.4367,-88.0117,0.5,19.29,2 
DISL,ioos:station:DISL:MBLA:1,2016-04-06T02:08:00Z,30.4367,-88.0117,0.5,19.16,2 
DISL,ioos:station:DISL:MBLA:1,2016-04-06T02:10:00Z,30.4367,-88.0117,0.5,19.18,2 
DISL,ioos:station:DISL:MBLA:1,2016-04-06T02:12:00Z,30.4367,-88.0117,0.5,19.58,2 
DISL,ioos:station:DISL:MBLA:1,2016-04-06T02:15:00Z,30.4367,-88.0117,0.5,19.85,2 
DISL,ioos:station:DISL:MBLA:1,2016-04-06T02:17:00Z,30.4367,-88.0117,0.5,19.91,2 
DISL,ioos:station:DISL:MBLA:1,2016-04-06T03:03:00Z,30.4367,-88.0117,0.5,19.43,2 
DISL,ioos:station:DISL:MBLA:1,2016-04-06T03:07:00Z,30.4367,-88.0117,0.5,19.14,2 
DISL,ioos:station:DISL:MBLA:1,2016-04-06T03:10:00Z,30.4367,-88.0117,0.5,19.34,2 
DISL,ioos:station:DISL:MBLA:1,2016-04-06T03:12:00Z,30.4367,-88.0117,0.5,19.73,2 
DISL,ioos:station:DISL:MBLA:1,2016-04-06T03:15:00Z,30.4367,-88.0117,0.5,19.87,2 
DISL,ioos:station:DISL:MBLA:1,2016-04-06T03:17:00Z,30.4367,-88.0117,0.5,19.87,2 
DISL,ioos:station:DISL:MBLA:1,2016-04-06T04:03:00Z,30.4367,-88.0117,0.5,19.46,2 
DISL,ioos:station:DISL:MBLA:1,2016-04-06T04:05:00Z,30.4367,-88.0117,0.5,19.22,2 
DISL,ioos:station:DISL:MBLA:1,2016-04-06T04:08:00Z,30.4367,-88.0117,0.5,19.18,2 
DISL,ioos:station:DISL:MBLA:1,2016-04-06T04:10:00Z,30.4367,-88.0117,0.5,19.69,2 
DISL,ioos:station:DISL:MBLA:1,2016-04-06T04:12:00Z,30.4367,-88.0117,0.5,19.78,2 
DISL,ioos:station:DISL:MBLA:1,2016-04-06T04:15:00Z,30.4367,-88.0117,0.5,19.79,2 
DISL,ioos:station:DISL:MBLA:1,2016-04-06T04:17:00Z,30.4367,-88.0117,0.5,19.79,2 
DISL,ioos:station:DISL:MBLA:1,2016-04-06T05:03:00Z,30.4367,-88.0117,0.5,19.41,2 
DISL,ioos:station:DISL:MBLA:1,2016-04-06T05:05:00Z,30.4367,-88.0117,0.5,19.22,2 
DISL,ioos:station:DISL:MBLA:1,2016-04-06T05:07:00Z,30.4367,-88.0117,0.5,19.27,2 
DISL,ioos:station:DISL:MBLA:1,2016-04-06T05:10:00Z,30.4367,-88.0117,0.5,19.53,2 
DISL,ioos:station:DISL:MBLA:1,2016-04-06T05:12:00Z,30.4367,-88.0117,0.5,19.67,2 
DISL,ioos:station:DISL:MBLA:1,2016-04-06T05:15:00Z,30.4367,-88.0117,0.5,19.66,2 
DISL,ioos:station:DISL:MBLA:1,2016-04-06T05:17:00Z,30.4367,-88.0117,0.5,19.66,2 
DISL,ioos:station:DISL:MBLA:1,2016-04-06T06:03:00Z,30.4367,-88.0117,0.5,19.48,2 
DISL,ioos:station:DISL:MBLA:1,2016-04-06T06:05:00Z,30.4367,-88.0117,0.5,19.2,2 
DISL,ioos:station:DISL:MBLA:1,2016-04-06T06:07:00Z,30.4367,-88.0117,0.5,19.53,2 
DISL,ioos:station:DISL:MBLA:1,2016-04-06T06:10:00Z,30.4367,-88.0117,0.5,19.82,2 
DISL,ioos:station:DISL:MBLA:1,2016-04-06T06:12:00Z,30.4367,-88.0117,0.5,19.97,2 
DISL,ioos:station:DISL:MBLA:1,2016-04-06T06:15:00Z,30.4367,-88.0117,0.5,20.02,2 
DISL,ioos:station:DISL:MBLA:1,2016-04-06T06:17:00Z,30.4367,-88.0117,0.5,20.04,2 
DISL,ioos:station:DISL:MBLA:1,2016-04-06T07:03:00Z,30.4367,-88.0117,0.5,19.52,2 
DISL,ioos:station:DISL:MBLA:1,2016-04-06T07:08:00Z,30.4367,-88.0117,0.5,19.28,2 
DISL,ioos:station:DISL:MBLA:1,2016-04-06T07:10:00Z,30.4367,-88.0117,0.5,19.8,2 
DISL,ioos:station:DISL:MBLA:1,2016-04-06T07:13:00Z,30.4367,-88.0117,0.5,19.83,2 
DISL,ioos:station:DISL:MBLA:1,2016-04-06T07:15:00Z,30.4367,-88.0117,0.5,19.8,2 
DISL,ioos:station:DISL:MBLA:1,2016-04-06T07:17:00Z,30.4367,-88.0117,0.5,19.72,2 
DISL,ioos:station:DISL:MBLA:1,2016-04-06T08:03:00Z,30.4367,-88.0117,0.5,19.45,2 
DISL,ioos:station:DISL:MBLA:1,2016-04-06T08:05:00Z,30.4367,-88.0117,0.5,19.43,2 
DISL,ioos:station:DISL:MBLA:1,2016-04-06T08:08:00Z,30.4367,-88.0117,0.5,19.93,2 
DISL,ioos:station:DISL:MBLA:1,2016-04-06T08:10:00Z,30.4367,-88.0117,0.5,19.91,2 
DISL,ioos:station:DISL:MBLA:1,2016-04-06T08:12:00Z,30.4367,-88.0117,0.5,20.17,2 
DISL,ioos:station:DISL:MBLA:1,2016-04-06T08:15:00Z,30.4367,-88.0117,0.5,20.23,2 
DISL,ioos:station:DISL:MBLA:1,2016-04-06T08:17:00Z,30.4367,-88.0117,0.5,20.04,2 
DISL,ioos:station:DISL:MBLA:1,2016-04-06T09:03:00Z,30.4367,-88.0117,0.5,19.4,2 
DISL,ioos:station:DISL:MBLA:1,2016-04-06T09:05:00Z,30.4367,-88.0117,0.5,19.31,2 
DISL,ioos:station:DISL:MBLA:1,2016-04-06T09:08:00Z,30.4367,-88.0117,0.5,19.4,2 
DISL,ioos:station:DISL:MBLA:1,2016-04-06T09:10:00Z,30.4367,-88.0117,0.5,19.8,2 
DISL,ioos:station:DISL:MBLA:1,2016-04-06T09:13:00Z,30.4367,-88.0117,0.5,19.74,2 
DISL,ioos:station:DISL:MBLA:1,2016-04-06T09:15:00Z,30.4367,-88.0117,0.5,19.64,2 
DISL,ioos:station:DISL:MBLA:1,2016-04-06T09:18:00Z,30.4367,-88.0117,0.5,19.53,2 
DISL,ioos:station:DISL:MBLA:1,2016-04-06T10:03:00Z,30.4367,-88.0117,0.5,19.47,2 
DISL,ioos:station:DISL:MBLA:1,2016-04-06T10:05:00Z,30.4367,-88.0117,0.5,19.47,2 
DISL,ioos:station:DISL:MBLA:1,2016-04-06T10:08:00Z,30.4367,-88.0117,0.5,19.49,2 
DISL,ioos:station:DISL:MBLA:1,2016-04-06T10:10:00Z,30.4367,-88.0117,0.5,19.79,2 
DISL,ioos:station:DISL:MBLA:1,2016-04-06T10:12:00Z,30.4367,-88.0117,0.5,19.66,2 
DISL,ioos:station:DISL:MBLA:1,2016-04-06T10:15:00Z,30.4367,-88.0117,0.5,19.52,2 
DISL,ioos:station:DISL:MBLA:1,2016-04-06T10:17:00Z,30.4367,-88.0117,0.5,19.41,2 
DISL,ioos:station:DISL:MBLA:1,2016-04-06T11:03:00Z,30.4367,-88.0117,0.5,19.43,2 
DISL,ioos:station:DISL:MBLA:1,2016-04-06T11:05:00Z,30.4367,-88.0117,0.5,19.4,2 
DISL,ioos:station:DISL:MBLA:1,2016-04-06T11:08:00Z,30.4367,-88.0117,0.5,19.12,2 
DISL,ioos:station:DISL:MBLA:1,2016-04-06T11:10:00Z,30.4367,-88.0117,0.5,19.17,2 
DISL,ioos:station:DISL:MBLA:1,2016-04-06T11:12:00Z,30.4367,-88.0117,0.5,19.44,2 
DISL,ioos:station:DISL:MBLA:1,2016-04-06T11:15:00Z,30.4367,-88.0117,0.5,19.46,2 
DISL,ioos:station:DISL:MBLA:1,2016-04-06T11:17:00Z,30.4367,-88.0117,0.5,19.46,2 
DISL,ioos:station:DISL:MBLA:1,2016-04-06T12:03:00Z,30.4367,-88.0117,0.5,19.4,2 
DISL,ioos:station:DISL:MBLA:1,2016-04-06T12:05:00Z,30.4367,-88.0117,0.5,19.34,2 
DISL,ioos:station:DISL:MBLA:1,2016-04-06T12:07:00Z,30.4367,-88.0117,0.5,19.25,2 
DISL,ioos:station:DISL:MBLA:1,2016-04-06T12:10:00Z,30.4367,-88.0117,0.5,19.17,2 
DISL,ioos:station:DISL:MBLA:1,2016-04-06T12:12:00Z,30.4367,-88.0117,0.5,19.17,2 
DISL,ioos:station:DISL:MBLA:1,2016-04-06T12:15:00Z,30.4367,-88.0117,0.5,19.16,2 
DISL,ioos:station:DISL:MBLA:1,2016-04-06T12:17:00Z,30.4367,-88.0117,0.5,19.15,2 
DISL,ioos:station:DISL:MBLA:1,2016-04-06T13:03:00Z,30.4367,-88.0117,0.5,19.43,2 
DISL,ioos:station:DISL:MBLA:1,2016-04-06T13:05:00Z,30.4367,-88.0117,0.5,19.31,2 
DISL,ioos:station:DISL:MBLA:1,2016-04-06T13:07:00Z,30.4367,-88.0117,0.5,19.33,2 
DISL,ioos:station:DISL:MBLA:1,2016-04-06T13:10:00Z,30.4367,-88.0117,0.5,19.25,2 
DISL,ioos:station:DISL:MBLA:1,2016-04-06T13:12:00Z,30.4367,-88.0117,0.5,19.26,2 
DISL,ioos:station:DISL:MBLA:1,2016-04-06T13:15:00Z,30.4367,-88.0117,0.5,19.26,2 
DISL,ioos:station:DISL:MBLA:1,2016-04-06T13:17:00Z,30.4367,-88.0117,0.5,19.26,2 
DISL,ioos:station:DISL:MBLA:1,2016-04-06T14:03:00Z,30.4367,-88.0117,0.5,19.51,2 
DISL,ioos:station:DISL:MBLA:1,2016-04-06T14:05:00Z,30.4367,-88.0117,0.5,19.29,2 
DISL,ioos:station:DISL:MBLA:1,2016-04-06T14:08:00Z,30.4367,-88.0117,0.5,19.35,2 
DISL,ioos:station:DISL:MBLA:1,2016-04-06T14:10:00Z,30.4367,-88.0117,0.5,19.25,2 
DISL,ioos:station:DISL:MBLA:1,2016-04-06T14:12:00Z,30.4367,-88.0117,0.5,19.31,2 
DISL,ioos:station:DISL:MBLA:1,2016-04-06T14:15:00Z,30.4367,-88.0117,0.5,19.34,2 
DISL,ioos:station:DISL:MBLA:1,2016-04-06T14:17:00Z,30.4367,-88.0117,0.5,19.34,2 
DISL,ioos:station:DISL:MBLA:1,2016-04-06T15:03:00Z,30.4367,-88.0117,0.5,19.45,2 
DISL,ioos:station:DISL:MBLA:1,2016-04-06T15:05:00Z,30.4367,-88.0117,0.5,19.42,2 
DISL,ioos:station:DISL:MBLA:1,2016-04-06T15:07:00Z,30.4367,-88.0117,0.5,19.42,2 
DISL,ioos:station:DISL:MBLA:1,2016-04-06T15:10:00Z,30.4367,-88.0117,0.5,19.48,2 
DISL,ioos:station:DISL:MBLA:1,2016-04-06T15:13:00Z,30.4367,-88.0117,0.5,19.51,2 
DISL,ioos:station:DISL:MBLA:1,2016-04-06T15:15:00Z,30.4367,-88.0117,0.5,19.52,2 
DISL,ioos:station:DISL:MBLA:1,2016-04-06T15:17:00Z,30.4367,-88.0117,0.5,19.53,2 
DISL,ioos:station:DISL:MBLA:1,2016-04-06T16:03:00Z,30.4367,-88.0117,0.5,19.44,2 
DISL,ioos:station:DISL:MBLA:1,2016-04-06T16:05:00Z,30.4367,-88.0117,0.5,19.34,2 
DISL,ioos:station:DISL:MBLA:1,2016-04-06T16:08:00Z,30.4367,-88.0117,0.5,19.61,2 
DISL,ioos:station:DISL:MBLA:1,2016-04-06T16:10:00Z,30.4367,-88.0117,0.5,19.67,2 
DISL,ioos:station:DISL:MBLA:1,2016-04-06T16:13:00Z,30.4367,-88.0117,0.5,19.73,2 
DISL,ioos:station:DISL:MBLA:1,2016-04-06T16:15:00Z,30.4367,-88.0117,0.5,19.8,2 
DISL,ioos:station:DISL:MBLA:1,2016-04-06T16:18:00Z,30.4367,-88.0117,0.5,19.79,2 
DISL,ioos:station:DISL:MBLA:1,2016-04-06T17:02:00Z,30.4367,-88.0117,0.5,19.43,2 
DISL,ioos:station:DISL:MBLA:1,2016-04-06T17:07:00Z,30.4367,-88.0117,0.5,19.8,2 
DISL,ioos:station:DISL:MBLA:1,2016-04-06T17:10:00Z,30.4367,-88.0117,0.5,19.86,2 
DISL,ioos:station:DISL:MBLA:1,2016-04-06T17:12:00Z,30.4367,-88.0117,0.5,19.87,2 
DISL,ioos:station:DISL:MBLA:1,2016-04-06T17:15:00Z,30.4367,-88.0117,0.5,19.84,2 
DISL,ioos:station:DISL:MBLA:1,2016-04-06T17:17:00Z,30.4367,-88.0117,0.5,19.95,2 
DISL,ioos:station:DISL:MBLA:1,2016-04-06T18:02:00Z,30.4367,-88.0117,0.5,19.42,2 
DISL,ioos:station:DISL:MBLA:1,2016-04-06T18:05:00Z,30.4367,-88.0117,0.5,19.62,2 
DISL,ioos:station:DISL:MBLA:1,2016-04-06T18:07:00Z,30.4367,-88.0117,0.5,20.01,2 
DISL,ioos:station:DISL:MBLA:1,2016-04-06T18:10:00Z,30.4367,-88.0117,0.5,20.09,2 
DISL,ioos:station:DISL:MBLA:1,2016-04-06T18:12:00Z,30.4367,-88.0117,0.5,20.08,2 
DISL,ioos:station:DISL:MBLA:1,2016-04-06T18:19:00Z,30.4367,-88.0117,0.5,20.14,2 
DISL,ioos:station:DISL:MBLA:1,2016-04-06T19:03:00Z,30.4367,-88.0117,0.5,19.86,2 
DISL,ioos:station:DISL:MBLA:1,2016-04-06T19:05:00Z,30.4367,-88.0117,0.5,19.81,2 
DISL,ioos:station:DISL:MBLA:1,2016-04-06T19:08:00Z,30.4367,-88.0117,0.5,19.99,2 
DISL,ioos:station:DISL:MBLA:1,2016-04-06T19:10:00Z,30.4367,-88.0117,0.5,20.04,2 
DISL,ioos:station:DISL:MBLA:1,2016-04-06T19:12:00Z,30.4367,-88.0117,0.5,20.2,2 
DISL,ioos:station:DISL:MBLA:1,2016-04-06T19:15:00Z,30.4367,-88.0117,0.5,20.2,2 
DISL,ioos:station:DISL:MBLA:1,2016-04-06T19:17:00Z,30.4367,-88.0117,0.5,20.23,2 
DISL,ioos:station:DISL:MBLA:1,2016-04-06T20:03:00Z,30.4367,-88.0117,0.5,19.75,2 
DISL,ioos:station:DISL:MBLA:1,2016-04-06T20:05:00Z,30.4367,-88.0117,0.5,19.95,2 
DISL,ioos:station:DISL:MBLA:1,2016-04-06T20:07:00Z,30.4367,-88.0117,0.5,20.06,2 
DISL,ioos:station:DISL:MBLA:1,2016-04-06T20:10:00Z,30.4367,-88.0117,0.5,20.1,2 
DISL,ioos:station:DISL:MBLA:1,2016-04-06T20:12:00Z,30.4367,-88.0117,0.5,20.19,2 
DISL,ioos:station:DISL:MBLA:1,2016-04-06T20:15:00Z,30.4367,-88.0117,0.5,20.23,2 
DISL,ioos:station:DISL:MBLA:1,2016-04-06T20:17:00Z,30.4367,-88.0117,0.5,20.31,2 
DISL,ioos:station:DISL:MBLA:1,2016-04-06T21:03:00Z,30.4367,-88.0117,0.5,19.72,2 
DISL,ioos:station:DISL:MBLA:1,2016-04-06T21:05:00Z,30.4367,-88.0117,0.5,20.21,2 
DISL,ioos:station:DISL:MBLA:1,2016-04-06T21:07:00Z,30.4367,-88.0117,0.5,20.32,2 
DISL,ioos:station:DISL:MBLA:1,2016-04-06T21:10:00Z,30.4367,-88.0117,0.5,20.34,2 
DISL,ioos:station:DISL:MBLA:1,2016-04-06T21:13:00Z,30.4367,-88.0117,0.5,20.39,2 
DISL,ioos:station:DISL:MBLA:1,2016-04-06T21:15:00Z,30.4367,-88.0117,0.5,20.41,2 
DISL,ioos:station:DISL:MBLA:1,2016-04-06T21:18:00Z,30.4367,-88.0117,0.5,20.43,2 
DISL,ioos:station:DISL:MBLA:1,2016-04-06T22:03:00Z,30.4367,-88.0117,0.5,19.7,2 
DISL,ioos:station:DISL:MBLA:1,2016-04-06T22:05:00Z,30.4367,-88.0117,0.5,20.0,2 
DISL,ioos:station:DISL:MBLA:1,2016-04-06T22:07:00Z,30.4367,-88.0117,0.5,20.37,2 
DISL,ioos:station:DISL:MBLA:1,2016-04-06T22:10:00Z,30.4367,-88.0117,0.5,20.38,2 
DISL,ioos:station:DISL:MBLA:1,2016-04-06T22:12:00Z,30.4367,-88.0117,0.5,20.39,2 
DISL,ioos:station:DISL:MBLA:1,2016-04-06T22:15:00Z,30.4367,-88.0117,0.5,20.4,2 
DISL,ioos:station:DISL:MBLA:1,2016-04-06T22:17:00Z,30.4367,-88.0117,0.5,20.42,2 
DISL,ioos:station:DISL:MBLA:1,2016-04-06T23:03:00Z,30.4367,-88.0117,0.5,19.74,2 
DISL,ioos:station:DISL:MBLA:1,2016-04-06T23:05:00Z,30.4367,-88.0117,0.5,20.45,2 
DISL,ioos:station:DISL:MBLA:1,2016-04-06T23:07:00Z,30.4367,-88.0117,0.5,20.38,2 
DISL,ioos:station:DISL:MBLA:1,2016-04-06T23:10:00Z,30.4367,-88.0117,0.5,20.47,2 
DISL,ioos:station:DISL:MBLA:1,2016-04-06T23:13:00Z,30.4367,-88.0117,0.5,20.48,2 
DISL,ioos:station:DISL:MBLA:1,2016-04-06T23:15:00Z,30.4367,-88.0117,0.5,20.5,2 
DISL,ioos:station:DISL:MBLA:1,2016-04-06T23:18:00Z,30.4367,-88.0117,0.5,20.49,2 
DISL,ioos:station:DISL:MBLA:1,2016-04-07T00:03:00Z,30.4367,-88.0117,0.5,19.71,2 
DISL,ioos:station:DISL:MBLA:1,2016-04-07T00:05:00Z,30.4367,-88.0117,0.5,20.34,2 
DISL,ioos:station:DISL:MBLA:1,2016-04-07T00:07:00Z,30.4367,-88.0117,0.5,20.67,2 
DISL,ioos:station:DISL:MBLA:1,2016-04-07T00:10:00Z,30.4367,-88.0117,0.5,20.68,2 
DISL,ioos:station:DISL:MBLA:1,2016-04-07T00:12:00Z,30.4367,-88.0117,0.5,20.67,2 
DISL,ioos:station:DISL:MBLA:1,2016-04-07T00:15:00Z,30.4367,-88.0117,0.5,20.67,2 
DISL,ioos:station:DISL:MBLA:1,2016-04-07T00:17:00Z,30.4367,-88.0117,0.5,20.67,2 
DISL,ioos:station:DISL:MBLA:1,2016-04-07T01:03:00Z,30.4367,-88.0117,0.5,19.61,2 
DISL,ioos:station:DISL:MBLA:1,2016-04-07T01:05:00Z,30.4367,-88.0117,0.5,19.81,2 
DISL,ioos:station:DISL:MBLA:1,2016-04-07T01:07:00Z,30.4367,-88.0117,0.5,20.49,2 
DISL,ioos:station:DISL:MBLA:1,2016-04-07T01:10:00Z,30.4367,-88.0117,0.5,20.51,2 
DISL,ioos:station:DISL:MBLA:1,2016-04-07T01:12:00Z,30.4367,-88.0117,0.5,20.51,2 
DISL,ioos:station:DISL:MBLA:1,2016-04-07T01:15:00Z,30.4367,-88.0117,0.5,20.51,2 
DISL,ioos:station:DISL:MBLA:1,2016-04-07T01:17:00Z,30.4367,-88.0117,0.5,20.52,2 
DISL,ioos:station:DISL:MBLA:1,2016-04-07T02:03:00Z,30.4367,-88.0117,0.5,19.59,2 
DISL,ioos:station:DISL:MBLA:1,2016-04-07T02:05:00Z,30.4367,-88.0117,0.5,19.92,2 
DISL,ioos:station:DISL:MBLA:1,2016-04-07T02:08:00Z,30.4367,-88.0117,0.5,20.39,2 
DISL,ioos:station:DISL:MBLA:1,2016-04-07T02:10:00Z,30.4367,-88.0117,0.5,20.45,2 
DISL,ioos:station:DISL:MBLA:1,2016-04-07T02:12:00Z,30.4367,-88.0117,0.5,20.46,2 
DISL,ioos:station:DISL:MBLA:1,2016-04-07T02:15:00Z,30.4367,-88.0117,0.5,20.47,2 
DISL,ioos:station:DISL:MBLA:1,2016-04-07T02:17:00Z,30.4367,-88.0117,0.5,20.46,2 
DISL,ioos:station:DISL:MBLA:1,2016-04-07T03:03:00Z,30.4367,-88.0117,0.5,20.26,2 
DISL,ioos:station:DISL:MBLA:1,2016-04-07T03:07:00Z,30.4367,-88.0117,0.5,20.41,2 
DISL,ioos:station:DISL:MBLA:1,2016-04-07T03:10:00Z,30.4367,-88.0117,0.5,20.44,2 
DISL,ioos:station:DISL:MBLA:1,2016-04-07T03:12:00Z,30.4367,-88.0117,0.5,20.45,2 
DISL,ioos:station:DISL:MBLA:1,2016-04-07T03:15:00Z,30.4367,-88.0117,0.5,20.43,2 
DISL,ioos:station:DISL:MBLA:1,2016-04-07T03:17:00Z,30.4367,-88.0117,0.5,20.41,2 
DISL,ioos:station:DISL:MBLA:1,2016-04-07T04:03:00Z,30.4367,-88.0117,0.5,20.07,2 
DISL,ioos:station:DISL:MBLA:1,2016-04-07T04:05:00Z,30.4367,-88.0117,0.5,20.37,2 
DISL,ioos:station:DISL:MBLA:1,2016-04-07T04:07:00Z,30.4367,-88.0117,0.5,20.38,2 
DISL,ioos:station:DISL:MBLA:1,2016-04-07T04:10:00Z,30.4367,-88.0117,0.5,20.39,2 
DISL,ioos:station:DISL:MBLA:1,2016-04-07T04:12:00Z,30.4367,-88.0117,0.5,20.39,2 
DISL,ioos:station:DISL:MBLA:1,2016-04-07T04:15:00Z,30.4367,-88.0117,0.5,20.39,2 
DISL,ioos:station:DISL:MBLA:1,2016-04-07T04:17:00Z,30.4367,-88.0117,0.5,20.36,2 
DISL,ioos:station:DISL:MBLA:1,2016-04-07T05:03:00Z,30.4367,-88.0117,0.5,20.1,2 
DISL,ioos:station:DISL:MBLA:1,2016-04-07T05:05:00Z,30.4367,-88.0117,0.5,20.27,2 
DISL,ioos:station:DISL:MBLA:1,2016-04-07T05:07:00Z,30.4367,-88.0117,0.5,20.29,2 
DISL,ioos:station:DISL:MBLA:1,2016-04-07T05:10:00Z,30.4367,-88.0117,0.5,20.3,2 
DISL,ioos:station:DISL:MBLA:1,2016-04-07T05:12:00Z,30.4367,-88.0117,0.5,20.33,2 
DISL,ioos:station:DISL:MBLA:1,2016-04-07T05:15:00Z,30.4367,-88.0117,0.5,20.33,2 
DISL,ioos:station:DISL:MBLA:1,2016-04-07T05:17:00Z,30.4367,-88.0117,0.5,20.34,2 
DISL,ioos:station:DISL:MBLA:1,2016-04-07T06:03:00Z,30.4367,-88.0117,0.5,20.19,2 
DISL,ioos:station:DISL:MBLA:1,2016-04-07T06:05:00Z,30.4367,-88.0117,0.5,20.24,2 
DISL,ioos:station:DISL:MBLA:1,2016-04-07T06:07:00Z,30.4367,-88.0117,0.5,20.29,2 
DISL,ioos:station:DISL:MBLA:1,2016-04-07T06:10:00Z,30.4367,-88.0117,0.5,20.32,2 
DISL,ioos:station:DISL:MBLA:1,2016-04-07T06:12:00Z,30.4367,-88.0117,0.5,20.32,2 
DISL,ioos:station:DISL:MBLA:1,2016-04-07T06:15:00Z,30.4367,-88.0117,0.5,20.32,2 
DISL,ioos:station:DISL:MBLA:1,2016-04-07T06:18:00Z,30.4367,-88.0117,0.5,20.31,2 
DISL,ioos:station:DISL:MBLA:1,2016-04-07T07:03:00Z,30.4367,-88.0117,0.5,20.24,2 
DISL,ioos:station:DISL:MBLA:1,2016-04-07T07:07:00Z,30.4367,-88.0117,0.5,20.27,2 
DISL,ioos:station:DISL:MBLA:1,2016-04-07T07:10:00Z,30.4367,-88.0117,0.5,20.25,2 
DISL,ioos:station:DISL:MBLA:1,2016-04-07T07:12:00Z,30.4367,-88.0117,0.5,20.19,2 
DISL,ioos:station:DISL:MBLA:1,2016-04-07T07:14:00Z,30.4367,-88.0117,0.5,20.17,2 
DISL,ioos:station:DISL:MBLA:1,2016-04-07T07:17:00Z,30.4367,-88.0117,0.5,20.16,2 
DISL,ioos:station:DISL:MBLA:1,2016-04-07T08:03:00Z,30.4367,-88.0117,0.5,20.2,2 
DISL,ioos:station:DISL:MBLA:1,2016-04-07T08:05:00Z,30.4367,-88.0117,0.5,20.18,2 
DISL,ioos:station:DISL:MBLA:1,2016-04-07T08:07:00Z,30.4367,-88.0117,0.5,20.1,2 
DISL,ioos:station:DISL:MBLA:1,2016-04-07T08:10:00Z,30.4367,-88.0117,0.5,20.06,2 
DISL,ioos:station:DISL:MBLA:1,2016-04-07T08:12:00Z,30.4367,-88.0117,0.5,20.03,2 
DISL,ioos:station:DISL:MBLA:1,2016-04-07T08:14:00Z,30.4367,-88.0117,0.5,20.03,2 
DISL,ioos:station:DISL:MBLA:1,2016-04-07T08:17:00Z,30.4367,-88.0117,0.5,19.99,2 
DISL,ioos:station:DISL:MBLA:1,2016-04-07T09:03:00Z,30.4367,-88.0117,0.5,19.95,2 
DISL,ioos:station:DISL:MBLA:1,2016-04-07T09:05:00Z,30.4367,-88.0117,0.5,19.98,2 
DISL,ioos:station:DISL:MBLA:1,2016-04-07T09:07:00Z,30.4367,-88.0117,0.5,19.98,2 
DISL,ioos:station:DISL:MBLA:1,2016-04-07T09:10:00Z,30.4367,-88.0117,0.5,20.0,2 
DISL,ioos:station:DISL:MBLA:1,2016-04-07T09:12:00Z,30.4367,-88.0117,0.5,19.99,2 
DISL,ioos:station:DISL:MBLA:1,2016-04-07T09:15:00Z,30.4367,-88.0117,0.5,20.01,2 
DISL,ioos:station:DISL:MBLA:1,2016-04-07T09:18:00Z,30.4367,-88.0117,0.5,20.01,2 
DISL,ioos:station:DISL:MBLA:1,2016-04-07T10:03:00Z,30.4367,-88.0117,0.5,19.82,2 
DISL,ioos:station:DISL:MBLA:1,2016-04-07T10:05:00Z,30.4367,-88.0117,0.5,20.08,2 
DISL,ioos:station:DISL:MBLA:1,2016-04-07T10:07:00Z,30.4367,-88.0117,0.5,20.09,2 
DISL,ioos:station:DISL:MBLA:1,2016-04-07T10:10:00Z,30.4367,-88.0117,0.5,20.09,2 
DISL,ioos:station:DISL:MBLA:1,2016-04-07T10:12:00Z,30.4367,-88.0117,0.5,20.08,2 
DISL,ioos:station:DISL:MBLA:1,2016-04-07T10:14:00Z,30.4367,-88.0117,0.5,20.08,2 
DISL,ioos:station:DISL:MBLA:1,2016-04-07T10:17:00Z,30.4367,-88.0117,0.5,20.08,2 
DISL,ioos:station:DISL:MBLA:1,2016-04-07T11:03:00Z,30.4367,-88.0117,0.5,19.85,2 
DISL,ioos:station:DISL:MBLA:1,2016-04-07T11:05:00Z,30.4367,-88.0117,0.5,20.04,2 
DISL,ioos:station:DISL:MBLA:1,2016-04-07T11:07:00Z,30.4367,-88.0117,0.5,19.96,2 
DISL,ioos:station:DISL:MBLA:1,2016-04-07T11:10:00Z,30.4367,-88.0117,0.5,19.94,2 
DISL,ioos:station:DISL:MBLA:1,2016-04-07T11:12:00Z,30.4367,-88.0117,0.5,19.91,2 
DISL,ioos:station:DISL:MBLA:1,2016-04-07T11:15:00Z,30.4367,-88.0117,0.5,19.87,2 
DISL,ioos:station:DISL:MBLA:1,2016-04-07T11:17:00Z,30.4367,-88.0117,0.5,19.86,2 
DISL,ioos:station:DISL:MBLA:1,2016-04-07T12:03:00Z,30.4367,-88.0117,0.5,19.67,2 
DISL,ioos:station:DISL:MBLA:1,2016-04-07T12:05:00Z,30.4367,-88.0117,0.5,19.84,2 
DISL,ioos:station:DISL:MBLA:1,2016-04-07T12:07:00Z,30.4367,-88.0117,0.5,19.85,2 
DISL,ioos:station:DISL:MBLA:1,2016-04-07T12:10:00Z,30.4367,-88.0117,0.5,19.83,2 
DISL,ioos:station:DISL:MBLA:1,2016-04-07T12:12:00Z,30.4367,-88.0117,0.5,19.83,2 
DISL,ioos:station:DISL:MBLA:1,2016-04-07T12:15:00Z,30.4367,-88.0117,0.5,19.82,2 
DISL,ioos:station:DISL:MBLA:1,2016-04-07T12:17:00Z,30.4367,-88.0117,0.5,19.81,2 
DISL,ioos:station:DISL:MBLA:1,2016-04-07T13:03:00Z,30.4367,-88.0117,0.5,19.73,2 
DISL,ioos:station:DISL:MBLA:1,2016-04-07T13:05:00Z,30.4367,-88.0117,0.5,19.81,2 
DISL,ioos:station:DISL:MBLA:1,2016-04-07T13:07:00Z,30.4367,-88.0117,0.5,19.81,2 
DISL,ioos:station:DISL:MBLA:1,2016-04-07T13:10:00Z,30.4367,-88.0117,0.5,19.81,2 
DISL,ioos:station:DISL:MBLA:1,2016-04-07T13:12:00Z,30.4367,-88.0117,0.5,19.81,2 
DISL,ioos:station:DISL:MBLA:1,2016-04-07T13:15:00Z,30.4367,-88.0117,0.5,19.81,2 
DISL,ioos:station:DISL:MBLA:1,2016-04-07T13:17:00Z,30.4367,-88.0117,0.5,19.81,2 
DISL,ioos:station:DISL:MBLA:1,2016-04-07T14:03:00Z,30.4367,-88.0117,0.5,19.8,2 
DISL,ioos:station:DISL:MBLA:1,2016-04-07T14:05:00Z,30.4367,-88.0117,0.5,19.81,2 
DISL,ioos:station:DISL:MBLA:1,2016-04-07T14:07:00Z,30.4367,-88.0117,0.5,19.86,2 
DISL,ioos:station:DISL:MBLA:1,2016-04-07T14:10:00Z,30.4367,-88.0117,0.5,19.87,2 
DISL,ioos:station:DISL:MBLA:1,2016-04-07T14:12:00Z,30.4367,-88.0117,0.5,19.88,2 
DISL,ioos:station:DISL:MBLA:1,2016-04-07T14:15:00Z,30.4367,-88.0117,0.5,19.89,2 
DISL,ioos:station:DISL:MBLA:1,2016-04-07T14:17:00Z,30.4367,-88.0117,0.5,19.92,2 
DISL,ioos:station:DISL:MBLA:1,2016-04-07T15:03:00Z,30.4367,-88.0117,0.5,19.73,2 
DISL,ioos:station:DISL:MBLA:1,2016-04-07T15:05:00Z,30.4367,-88.0117,0.5,19.84,2 
DISL,ioos:station:DISL:MBLA:1,2016-04-07T15:08:00Z,30.4367,-88.0117,0.5,19.88,2 
DISL,ioos:station:DISL:MBLA:1,2016-04-07T15:10:00Z,30.4367,-88.0117,0.5,19.89,2 
DISL,ioos:station:DISL:MBLA:1,2016-04-07T15:13:00Z,30.4367,-88.0117,0.5,20.02,2 
DISL,ioos:station:DISL:MBLA:1,2016-04-07T15:15:00Z,30.4367,-88.0117,0.5,20.14,2 
DISL,ioos:station:DISL:MBLA:1,2016-04-07T15:18:00Z,30.4367,-88.0117,0.5,20.36,2 
DISL,ioos:station:DISL:MBLA:1,2016-04-07T16:03:00Z,30.4367,-88.0117,0.5,19.85,2 
DISL,ioos:station:DISL:MBLA:1,2016-04-07T16:05:00Z,30.4367,-88.0117,0.5,19.86,2 
DISL,ioos:station:DISL:MBLA:1,2016-04-07T16:08:00Z,30.4367,-88.0117,0.5,19.87,2 
DISL,ioos:station:DISL:MBLA:1,2016-04-07T16:10:00Z,30.4367,-88.0117,0.5,20.24,2 
DISL,ioos:station:DISL:MBLA:1,2016-04-07T16:12:00Z,30.4367,-88.0117,0.5,20.2,2 
DISL,ioos:station:DISL:MBLA:1,2016-04-07T16:15:00Z,30.4367,-88.0117,0.5,20.3,2 
DISL,ioos:station:DISL:MBLA:1,2016-04-07T16:18:00Z,30.4367,-88.0117,0.5,20.66,2 
DISL,ioos:station:DISL:MBLA:1,2016-04-07T17:03:00Z,30.4367,-88.0117,0.5,19.84,2 
DISL,ioos:station:DISL:MBLA:1,2016-04-07T17:07:00Z,30.4367,-88.0117,0.5,19.95,2 
DISL,ioos:station:DISL:MBLA:1,2016-04-07T17:10:00Z,30.4367,-88.0117,0.5,20.05,2 
DISL,ioos:station:DISL:MBLA:1,2016-04-07T17:12:00Z,30.4367,-88.0117,0.5,20.29,2 
DISL,ioos:station:DISL:MBLA:1,2016-04-07T17:15:00Z,30.4367,-88.0117,0.5,20.67,2 
DISL,ioos:station:DISL:MBLA:1,2016-04-07T17:18:00Z,30.4367,-88.0117,0.5,21.45,2 
DISL,ioos:station:DISL:MBLA:1,2016-04-07T18:03:00Z,30.4367,-88.0117,0.5,19.92,2 
DISL,ioos:station:DISL:MBLA:1,2016-04-07T18:05:00Z,30.4367,-88.0117,0.5,20.0,2 
DISL,ioos:station:DISL:MBLA:1,2016-04-07T18:07:00Z,30.4367,-88.0117,0.5,19.98,2 
DISL,ioos:station:DISL:MBLA:1,2016-04-07T18:10:00Z,30.4367,-88.0117,0.5,20.08,2 
DISL,ioos:station:DISL:MBLA:1,2016-04-07T18:13:00Z,30.4367,-88.0117,0.5,20.44,2 
DISL,ioos:station:DISL:MBLA:1,2016-04-07T18:15:00Z,30.4367,-88.0117,0.5,21.16,2 
DISL,ioos:station:DISL:MBLA:1,2016-04-07T18:18:00Z,30.4367,-88.0117,0.5,21.69,2 
DISL,ioos:station:DISL:MBLA:1,2016-04-07T19:03:00Z,30.4367,-88.0117,0.5,19.83,2 